CW9854 Weather Reports


Display with metric or nautical units.
time (UTC)temp
F
wind
direction
speed
MPH
gust
MPH
rain 1hr
in
rain 24hr
in
rain mn
in
humidity
%
barometer
mb
20260506204503 49 210 1.0 7.0 0.00 1.20 0.57 89 1009.0
20260506204003 49 235 0.0 2.0 0.00 1.20 0.57 89 1009.0
20260506203503 50 235 0.0 1.0 0.00 1.20 0.57 89 1009.0
20260506203217 50 235 0.0 1.0 0.00 1.20 0.57 89 1009.1
20260506202718 50 235 0.0 1.0 0.00 1.20 0.57 89 1009.1
20260506202003 50 235 0.0 1.0 0.00 1.20 0.57 90 1009.1
20260506201718 50 235 0.0 1.0 0.00 1.20 0.57 90 1009.1
20260506201217 50 235 0.0 1.0 0.00 1.20 0.57 89 1009.2
20260506200503 50 235 0.0 1.0 0.00 1.20 0.57 89 1009.1
20260506200003 50 235 0.0 1.0 0.00 1.20 0.57 88 1009.1
20260506195503 50 235 0.0 1.0 0.00 1.20 0.57 87 1009.1
20260506195003 50 0 0.0 0.0 0.00 1.20 0.57 87 1009.1
20260506194503 50 235 0.0 2.0 0.00 1.20 0.57 87 1009.1
20260506194217 50 235 0.0 2.0 0.00 1.20 0.57 88 1009.2
20260506193503 50 235 0.0 1.0 0.00 1.20 0.57 88 1009.2
20260506193217 50 235 0.0 1.0 0.00 1.20 0.57 88 1009.2
20260506192504 50 235 0.0 1.0 0.00 1.20 0.57 88 1009.1
20260506192003 50 238 0.0 2.0 0.00 1.20 0.57 88 1009.2
20260506191503 50 243 0.0 2.0 0.00 1.20 0.57 87 1009.1
20260506191003 50 22 0.0 1.0 0.00 1.20 0.57 88 1009.2
20260506190503 50 29 0.0 2.0 0.00 1.20 0.57 87 1009.1
20260506190218 50 30 0.0 2.0 0.00 1.20 0.57 87 1009.1
20260506185503 50 30 1.0 3.0 0.00 1.20 0.57 88 1009.1
20260506185219 50 32 1.0 3.0 0.00 1.20 0.57 87 1009.1
20260506184503 50 42 1.0 4.0 0.00 1.20 0.57 90 1009.0
20260506184003 49 56 1.0 4.0 0.00 1.20 0.57 89 1009.0
20260506183503 49 72 1.0 3.0 0.00 1.20 0.57 90 1009.1
20260506183004 49 82 0.0 2.0 0.00 1.20 0.57 91 1009.1
20260506182503 48 82 0.0 3.0 0.00 1.20 0.57 90 1009.3
20260506182003 48 82 0.0 3.0 0.00 1.20 0.57 89 1009.4
20260506181503 48 82 0.0 1.0 0.00 1.20 0.57 90 1009.4
20260506181003 48 82 0.0 1.0 0.00 1.20 0.57 90 1009.4
20260506180503 48 82 0.0 1.0 0.00 1.20 0.57 90 1009.4
20260506180004 48 82 0.0 1.0 0.00 1.20 0.57 89 1009.4
20260506175503 48 82 0.0 1.0 0.00 1.20 0.57 89 1009.3
20260506175218 48 82 0.0 1.0 0.00 1.20 0.57 89 1009.2
20260506174503 48 82 0.0 1.0 0.00 1.20 0.57 90 1009.3
20260506174003 48 82 0.0 1.0 0.00 1.20 0.57 90 1009.3
20260506173503 48 82 0.0 1.0 0.00 1.20 0.57 90 1009.4
20260506173004 48 82 0.0 1.0 0.00 1.20 0.57 90 1009.4
20260506172503 47 82 0.0 1.0 0.00 1.20 0.57 91 1009.4
20260506172003 47 82 0.0 1.0 0.00 1.20 0.57 91 1009.4
20260506171503 47 82 0.0 1.0 0.00 1.20 0.57 91 1009.4
20260506171003 47 82 0.0 1.0 0.00 1.20 0.57 91 1009.3
20260506170503 47 0 0.0 0.0 0.00 1.20 0.57 92 1009.5
20260506170218 47 82 0.0 1.0 0.00 1.20 0.57 92 1009.4
20260506165503 47 82 0.0 2.0 0.00 1.20 0.57 92 1009.3
20260506165003 47 82 0.0 2.0 0.00 1.20 0.57 91 1009.3
20260506164503 47 82 0.0 1.0 0.00 1.20 0.57 91 1009.1
20260506164003 47 82 0.0 1.0 0.00 1.20 0.57 91 1009.2
20260506163503 47 82 0.0 1.0 0.00 1.20 0.57 92 1009.0
20260506163003 47 82 0.0 1.0 0.00 1.20 0.57 92 1009.0
20260506162503 47 82 0.0 1.0 0.00 1.20 0.57 92 1009.1
20260506162003 47 82 0.0 1.0 0.00 1.20 0.57 93 1009.2
20260506161719 47 82 0.0 1.0 0.00 1.20 0.57 92 1009.2
20260506161003 47 82 0.0 1.0 0.00 1.20 0.57 93 1009.1
20260506160503 47 82 0.0 1.0 0.00 1.20 0.57 93 1009.1
20260506160003 47 82 0.0 1.0 0.01 1.20 0.57 93 1009.1
20260506155503 47 82 0.0 1.0 0.01 1.20 0.57 93 1009.0
20260506155003 47 82 0.0 1.0 0.01 1.20 0.57 93 1009.0
20260506154503 47 82 0.0 1.0 0.01 1.20 0.57 93 1009.1
20260506154003 47 82 0.0 1.0 0.01 1.20 0.57 93 1009.1
20260506153718 47 82 0.0 1.0 0.01 1.20 0.57 93 1009.0
20260506153003 47 82 0.0 2.0 0.01 1.20 0.57 93 1009.1
20260506152503 47 82 0.0 2.0 0.01 1.20 0.57 94 1008.8
20260506152003 47 82 0.0 2.0 0.01 1.20 0.57 94 1008.8
20260506151503 47 82 0.0 2.0 0.02 1.20 0.57 95 1008.8
20260506151003 47 82 0.0 2.0 0.02 1.20 0.57 95 1008.8
20260506150504 47 68 0.0 2.0 0.02 1.20 0.57 95 1009.0
20260506150004 47 59 0.0 2.0 0.01 1.19 0.56 95 1008.9
20260506145503 46 31 0.0 1.0 0.01 1.19 0.56 95 1008.8
20260506145003 46 31 0.0 3.0 0.01 1.19 0.56 95 1008.6
20260506144503 46 32 1.0 3.0 0.01 1.19 0.56 94 1008.7
20260506144003 46 32 0.0 2.0 0.01 1.19 0.56 95 1008.6
20260506143503 46 32 0.0 2.0 0.01 1.19 0.56 94 1008.6
20260506143003 46 32 0.0 2.0 0.02 1.19 0.56 95 1008.7
20260506142503 46 32 0.0 1.0 0.02 1.19 0.56 95 1008.8
20260506142003 46 35 1.0 2.0 0.02 1.19 0.56 95 1008.8
20260506141503 46 37 0.0 2.0 0.01 1.18 0.55 95 1008.6
20260506141217 46 44 0.0 2.0 0.01 1.18 0.55 95 1008.6
20260506140503 46 51 0.0 1.0 0.01 1.18 0.55 95 1008.6
20260506140003 45 51 0.0 1.0 0.01 1.18 0.55 95 1008.5
20260506135503 45 51 0.0 2.0 0.01 1.18 0.55 95 1008.4
20260506135003 45 51 0.0 2.0 0.01 1.18 0.55 95 1008.5
20260506134503 45 51 0.0 2.0 0.02 1.18 0.55 95 1008.4
20260506134218 45 51 0.0 1.0 0.02 1.18 0.55 95 1008.5
20260506133717 45 51 0.0 1.0 0.02 1.18 0.55 95 1008.3
20260506133003 45 0 0.0 0.0 0.02 1.17 0.54 95 1008.3
20260506132503 45 51 0.0 1.0 0.02 1.17 0.54 95 1008.2
20260506132003 45 51 0.0 1.0 0.02 1.17 0.54 95 1008.2
20260506131503 45 51 0.0 1.0 0.02 1.17 0.54 95 1008.1
20260506131003 45 51 0.0 1.0 0.02 1.17 0.54 95 1008.1
20260506130503 45 53 0.0 1.0 0.03 1.17 0.54 95 1008.1
20260506130004 44 62 0.0 1.0 0.03 1.17 0.54 95 1008.0
20260506125503 44 74 0.0 2.0 0.03 1.17 0.54 95 1008.1
20260506125006 44 82 0.0 2.0 0.03 1.17 0.54 95 1008.0
20260506124503 44 109 0.0 2.0 0.02 1.16 0.53 95 1007.9
20260506124005 44 109 0.0 2.0 0.02 1.16 0.53 95 1008.0
20260506123503 44 98 0.0 2.0 0.03 1.16 0.53 95 1007.9
20260506123218 44 74 1.0 2.0 0.02 1.15 0.52 95 1007.9
20260506122503 44 25 1.0 2.0 0.02 1.15 0.52 95 1007.8
20260506122003 44 25 0.0 2.0 0.03 1.15 0.52 95 1007.8
20260506121503 44 25 0.0 1.0 0.03 1.15 0.52 95 1007.8
20260506121003 44 25 0.0 1.0 0.03 1.15 0.52 95 1007.8
20260506120503 44 28 0.0 1.0 0.02 1.14 0.51 95 1007.7
20260506120003 44 30 1.0 2.0 0.03 1.14 0.51 95 1007.6
20260506115503 44 39 1.0 2.0 0.03 1.14 0.51 95 1007.6
20260506115003 44 54 1.0 2.0 0.03 1.14 0.51 95 1007.5
20260506114503 44 66 1.0 3.0 0.03 1.14 0.51 95 1007.5
20260506114218 44 68 1.0 3.0 0.03 1.14 0.51 94 1007.6
20260506113717 44 73 1.0 3.0 0.02 1.13 0.50 95 1007.6
20260506113003 44 78 1.0 2.0 0.03 1.13 0.50 95 1007.6
20260506112503 44 67 1.0 3.0 0.03 1.13 0.50 94 1007.5
20260506112003 44 54 1.0 3.0 0.02 1.12 0.49 94 1007.7
20260506111503 44 45 0.0 2.0 0.03 1.12 0.49 94 1007.9
20260506111003 44 29 0.0 2.0 0.03 1.12 0.49 94 1007.9
20260506110504 44 24 0.0 2.0 0.03 1.12 0.49 95 1008.1
20260506110003 44 40 1.0 2.0 0.03 1.11 0.48 94 1007.9
20260506105718 44 41 1.0 3.0 0.03 1.11 0.48 94 1008.0
20260506105004 45 44 1.0 5.0 0.04 1.11 0.48 94 1007.8
20260506104718 45 41 1.0 5.0 0.04 1.11 0.48 95 1007.7
20260506104004 45 17 0.0 3.0 0.05 1.11 0.48 95 1007.7
20260506103503 45 27 1.0 4.0 0.04 1.10 0.47 95 1007.7
20260506103217 45 31 1.0 4.0 0.04 1.10 0.47 95 1007.6
20260506102503 45 53 1.0 2.0 0.05 1.10 0.47 95 1007.2
20260506102003 45 64 1.0 2.0 0.06 1.10 0.47 95 1007.4
20260506101503 45 51 1.0 2.0 0.05 1.09 0.46 95 1007.5
20260506101003 45 38 1.0 3.0 0.06 1.09 0.46 95 1007.8
20260506100503 46 49 1.0 3.0 0.07 1.09 0.46 95 1008.0
20260506100004 46 49 1.0 3.0 0.07 1.08 0.45 95 1008.0
20260506095503 46 35 1.0 2.0 0.07 1.08 0.45 95 1008.0
20260506095004 46 26 0.0 1.0 0.06 1.07 0.44 95 1008.0
20260506094503 46 26 0.0 1.0 0.07 1.07 0.44 95 1008.1
20260506094003 46 26 0.0 1.0 0.07 1.06 0.43 95 1008.1
20260506093503 46 26 0.0 1.0 0.07 1.06 0.43 95 1008.0
20260506093003 46 26 0.0 1.0 0.07 1.05 0.42 95 1008.0
20260506092503 46 26 0.0 1.0 0.08 1.05 0.42 95 1008.0
20260506092003 46 26 0.0 1.0 0.07 1.04 0.41 95 1008.0
20260506091503 46 26 0.0 1.0 0.08 1.04 0.41 95 1008.1
20260506091217 46 26 0.0 1.0 0.07 1.03 0.41 95 1008.0
20260506090503 46 36 0.0 3.0 0.06 1.02 0.39 95 1007.9
20260506090003 46 53 0.0 2.0 0.06 1.01 0.38 95 1008.1
20260506085503 46 46 0.0 2.0 0.06 1.01 0.38 95 1007.9
20260506085003 46 43 0.0 3.0 0.06 1.01 0.38 95 1008.0
20260506084503 46 52 0.0 3.0 0.06 1.00 0.37 95 1007.9
20260506084003 46 55 1.0 3.0 0.05 0.99 0.36 95 1008.0
20260506083503 46 52 1.0 3.0 0.06 0.99 0.36 95 1007.9
20260506083003 46 33 0.0 2.0 0.05 0.98 0.35 95 1007.7
20260506082503 46 35 0.0 2.0 0.05 0.97 0.34 95 1007.6
20260506082003 46 41 1.0 3.0 0.05 0.97 0.34 95 1007.7
20260506081508 46 44 1.0 4.0 0.05 0.96 0.33 95 1007.7
20260506081003 47 51 2.0 4.0 0.05 0.96 0.33 95 1007.7
20260506080503 47 49 1.0 4.0 0.06 0.96 0.33 95 1007.8
20260506073003 47 42 1.0 2.0 0.07 0.93 0.30 95 1007.7
20260506072503 47 44 1.0 2.0 0.07 0.92 0.29 95 1007.7
20260506072003 47 47 1.0 3.0 0.07 0.92 0.29 94 1007.8
20260506071503 47 41 1.0 3.0 0.07 0.91 0.28 95 1007.8
20260506071003 48 32 1.0 3.0 0.07 0.91 0.28 95 1007.8
20260506070717 48 32 1.0 2.0 0.06 0.90 0.28 95 1007.8
20260506062003 47 0 0.0 0.0 0.07 0.89 0.22 95 1008.0
20260506061503 47 38 0.0 3.0 0.07 0.88 0.22 95 1008.2
20260506061003 47 38 0.0 3.0 0.08 0.88 0.21 94 1008.1
20260506060503 47 38 0.0 3.0 0.09 0.89 0.21 95 1007.8
20260506051003 47 77 0.0 1.0 0.13 0.82 0.13 94 1008.8
20260506050504 47 77 0.0 1.0 0.12 0.81 0.12 94 1008.9
20260506045003 47 77 0.0 2.0 0.08 0.77 0.08 94 1008.7
20260506044503 48 77 0.0 1.0 0.06 0.75 0.07 94 1008.7
20260506044217 48 77 0.0 1.0 0.06 0.75 0.06 94 1008.6
20260506043726 48 77 0.0 3.0 0.04 0.73 0.04 94 1008.6
20260506043004 48 77 0.0 3.0 0.04 0.72 0.03 94 1008.4
20260506042504 48 0 0.0 0.0 0.03 0.71 0.02 94 1008.7
20260506042004 48 0 0.0 0.0 0.02 0.70 0.01 94 1008.6
20260506041503 48 77 0.0 1.0 0.03 0.70 0.01 94 1008.5
20260506041003 48 77 0.0 2.0 0.03 0.69 0.00 94 1008.4
20260506040722 48 78 0.0 2.0 0.03 0.69 0.00 94 1008.4
20260506040004 48 83 0.0 2.0 0.04 0.69 0.00 94 1008.3
20260506035503 48 89 0.0 1.0 0.05 0.69 0.69 94 1008.4
20260506035004 48 0 0.0 0.0 0.05 0.69 0.69 94 1008.5
20260506034503 48 0 0.0 0.0 0.06 0.69 0.69 94 1008.3
20260506034003 48 0 0.0 0.0 0.07 0.69 0.69 94 1008.4
20260506033503 48 0 0.0 0.0 0.07 0.69 0.69 94 1008.6
20260506033004 48 0 0.0 0.0 0.07 0.68 0.68 94 1008.6
20260506032508 48 0 0.0 0.0 0.07 0.68 0.68 94 1008.6
20260506032003 48 0 0.0 0.0 0.07 0.68 0.68 94 1008.8
20260506031718 48 0 0.0 0.0 0.06 0.67 0.67 94 1008.6
20260506031003 48 0 0.0 0.0 0.06 0.66 0.67 94 1008.7
20260506030718 48 0 0.0 0.0 0.06 0.66 0.66 94 1008.7
20260506030221 48 0 0.0 0.0 0.05 0.65 0.65 94 1008.7
20260506025503 48 0 0.0 0.0 0.04 0.64 0.64 94 1009.0
20260506025003 48 0 0.0 0.0 0.04 0.64 0.64 94 1009.2
20260506024504 48 0 0.0 0.0 0.03 0.63 0.63 94 1009.1
20260506024003 48 0 0.0 0.0 0.02 0.62 0.62 94 1008.9
20260506023718 48 0 0.0 0.0 0.02 0.62 0.62 94 1009.0
20260506023003 48 0 0.0 0.0 0.01 0.61 0.61 94 1009.1
20260506022503 48 0 0.0 0.0 0.01 0.61 0.61 94 1009.1
20260506022003 48 0 0.0 0.0 0.02 0.61 0.61 94 1009.1
20260506021503 48 0 0.0 0.0 0.02 0.61 0.61 94 1009.1
20260506021004 48 0 0.0 0.0 0.01 0.60 0.60 94 1008.9
20260506020717 48 0 0.0 0.0 0.01 0.60 0.60 94 1009.0
20260506020004 48 0 0.0 0.0 0.02 0.60 0.60 94 1009.0
20260506015503 48 0 0.0 0.0 0.03 0.60 0.60 94 1009.1
20260506015003 48 0 0.0 0.0 0.03 0.60 0.60 94 1009.2
20260506014717 48 0 0.0 0.0 0.04 0.60 0.60 94 1009.3
20260506014003 48 161 0.0 1.0 0.06 0.60 0.60 94 1009.2
20260506013503 48 161 0.0 1.0 0.07 0.60 0.60 94 1009.2
20260506013003 48 0 0.0 0.0 0.08 0.60 0.60 94 1009.0
20260506012503 48 0 0.0 0.0 0.09 0.60 0.60 94 1008.8
20260506012003 48 0 0.0 0.0 0.09 0.59 0.59 94 1008.9
20260506011503 48 0 0.0 0.0 0.10 0.59 0.59 94 1008.8
20260506011003 48 0 0.0 0.0 0.11 0.59 0.59 94 1008.8
20260506010507 48 0 0.0 0.0 0.12 0.59 0.59 94 1008.8
20260506010004 48 0 0.0 0.0 0.13 0.58 0.58 94 1008.9
20260506005505 48 0 0.0 0.0 0.13 0.57 0.57 94 1008.9
20260506005003 48 0 0.0 0.0 0.14 0.57 0.57 93 1009.1
20260506004507 48 0 0.0 0.0 0.15 0.56 0.56 93 1009.2
20260506004009 48 161 0.0 1.0 0.14 0.54 0.54 93 1009.1
20260506003717 48 161 0.0 1.0 0.13 0.53 0.53 93 1009.0
20260506003005 48 161 0.0 2.0 0.13 0.52 0.52 93 1008.8
20260506002509 48 161 0.0 2.0 0.12 0.51 0.51 93 1008.8
20260506002005 49 161 0.0 1.0 0.12 0.50 0.50 93 1008.5
20260506001503 49 161 0.0 1.0 0.12 0.49 0.49 93 1008.5
20260506001003 49 161 0.0 1.0 0.12 0.48 0.48 93 1008.5
20260506000503 49 161 0.0 2.0 0.12 0.47 0.47 93 1008.5
20260506000003 49 160 0.0 2.0 0.10 0.45 0.45 93 1008.5
20260505235503 49 157 0.0 1.0 0.10 0.44 0.44 93 1008.3
20260505235217 49 157 0.0 1.0 0.09 0.43 0.43 93 1008.3
20260505234718 49 152 0.0 2.0 0.09 0.42 0.42 93 1008.3
20260505234217 49 149 0.0 2.0 0.09 0.41 0.41 93 1008.1
20260505233503 49 143 0.0 2.0 0.10 0.40 0.40 92 1008.0
20260505233003 49 143 0.0 1.0 0.09 0.39 0.39 92 1007.8
20260505232503 49 143 0.0 1.0 0.10 0.39 0.39 92 1007.8
20260505232003 49 143 0.0 1.0 0.10 0.38 0.38 92 1007.8
20260505231503 49 138 0.0 2.0 0.10 0.37 0.37 92 1008.0
20260505231003 49 129 0.0 2.0 0.10 0.36 0.36 92 1008.0
20260505230506 49 128 0.0 4.0 0.10 0.35 0.35 92 1008.0
20260505230004 49 136 0.0 4.0 0.11 0.35 0.35 92 1008.0
20260505225504 49 254 0.0 1.0 0.11 0.34 0.34 92 1008.2
20260505225003 50 254 0.0 1.0 0.11 0.33 0.33 92 1008.2
20260505224718 50 254 0.0 1.0 0.12 0.33 0.33 92 1008.4
20260505224003 50 254 0.0 1.0 0.12 0.31 0.31 92 1008.3
20260505223504 50 254 0.0 2.0 0.13 0.30 0.30 92 1008.3
20260505223003 50 254 0.0 2.0 0.14 0.30 0.30 92 1008.3
20260505222503 50 0 0.0 0.0 0.14 0.29 0.29 92 1008.2
20260505222003 50 0 0.0 0.0 0.15 0.28 0.28 91 1008.5
20260505221503 50 0 0.0 0.0 0.17 0.27 0.27 91 1008.2
20260505221003 50 0 0.0 0.0 0.18 0.26 0.26 91 1008.1
20260505220503 50 0 0.0 0.0 0.18 0.25 0.25 91 1008.1
20260505220004 50 0 0.0 0.0 0.17 0.24 0.24 91 1008.2
20260505215503 50 0 0.0 0.0 0.17 0.23 0.23 91 1008.2
20260505215004 50 0 0.0 0.0 0.16 0.22 0.22 90 1008.3
20260505214503 51 0 0.0 0.0 0.14 0.20 0.20 90 1008.3
20260505214003 51 301 0.0 1.0 0.13 0.19 0.19 89 1008.1
20260505213503 51 315 1.0 2.0 0.11 0.17 0.17 89 1007.6
20260505213003 52 326 2.0 3.0 0.10 0.16 0.16 88 1007.8
20260505212503 53 331 2.0 5.0 0.09 0.15 0.15 87 1007.8
20260505212003 54 325 2.0 5.0 0.07 0.13 0.13 87 1007.7
20260505211503 55 313 1.0 4.0 0.04 0.10 0.10 89 1007.5
20260505211003 55 312 1.0 3.0 0.02 0.08 0.08 88 1007.3
20260505210504 55 276 2.0 4.0 0.01 0.07 0.07 88 1007.0
20260505210003 55 253 2.0 4.0 0.01 0.07 0.07 87 1006.9
20260505205717 56 249 2.0 4.0 0.00 0.06 0.06 86 1006.6
20260505205003 56 219 1.0 3.0 0.00 0.06 0.06 85 1006.4